Wind_Speed
15 14 14 12 11 10 9 8 8 7 6 4 4 4 4 5 6 7 8 9 10 10 11 11 12 13 13 12 12 12 12 12 13 14 15 15 16 17 17 18 18 18 18
16 16 15 14 13 12 10 9 8 7 6 4 4 4 5 6 7 8 9 10 10 11 12 12 13 13 14 14 13 13 13 13 14 15 15 16 17 18 18 19 19 19 19
18 16 16 15 13 12 11 10 9 7 5 4 4 5 6 7 9 10 11 11 11 12 12 13 13 14 14 14 14 14 14 15 15 16 17 18 19 19 19 20 20 20 20
18 16 15 14 13 12 11 9 8 6 5 5 5 6 7 8 10 11 12 12 13 13 13 13 14 14 15 15 15 15 16 16 17 17 18 19 20 20 20 20 20 20 20
18 17 15 14 13 11 10 9 8 7 6 6 6 7 8 10 11 12 13 14 14 14 14 14 14 15 15 16 16 16 17 17 18 18 19 20 20 20 20 20 20 20 20
19 17 16 14 13 11 10 9 8 7 7 7 8 9 10 12 12 13 14 15 15 15 15 15 15 16 16 17 17 18 18 19 19 20 21 21 21 21 21 21 20 20 20
19 17 16 14 13 12 10 9 8 8 8 9 10 12 13 14 15 15 16 16 16 16 16 16 16 16 17 18 19 19 20 21 22 22 22 22 22 22 22 22 21 21 21
19 17 16 15 13 12 11 10 9 9 10 11 12 13 15 16 16 17 17 17 17 17 16 17 17 17 18 19 20 21 22 22 23 24 24 24 24 23 23 23 22 22 21
21 19 17 16 15 14 12 11 11 11 11 12 13 14 15 17 17 18 18 19 18 18 18 18 18 18 19 20 21 22 23 24 24 25 25 25 25 25 25 24 24 23 23
23 21 19 17 16 15 14 13 13 13 13 14 15 15 16 17 18 19 19 20 20 19 19 19 19 20 20 21 22 23 24 25 26 26 27 27 27 26 26 26 26 25 25
25 23 21 20 18 17 16 15 15 15 15 16 16 17 17 18 19 19 20 20 20 21 21 21 21 22 22 23 23 24 25 26 27 28 28 28 28 28 28 27 27 27 27
28 26 24 22 21 20 18 18 17 17 18 18 18 19 19 20 20 20 20 21 21 21 22 22 23 23 24 24 25 26 27 28 28 29 29 29 29 29 29 29 29 28 28
29 28 26 24 23 22 21 20 20 20 20 20 20 20 21 21 22 22 21 21 22 22 23 23 24 24 25 26 27 27 28 29 30 30 31 31 31 31 31 31 30 30 30
31 30 28 27 26 25 24 23 22 22 22 22 22 22 23 23 24 23 23 23 23 23 24 24 25 26 27 27 28 29 30 31 32 32 33 33 33 33 33 33 33 32 32
34 32 31 30 29 28 27 26 25 25 24 24 24 24 25 25 26 26 25 25 25 25 25 26 27 27 28 29 30 31 32 33 33 34 35 35 35 36 36 35 35 35 34
36 35 34 33 32 31 30 29 28 28 27 27 27 26 26 27 27 27 27 27 27 27 27 28 29 29 30 31 32 33 34 35 36 36 37 37 38 38 38 38 38 38 37
39 38 37 36 35 34 33 32 31 30 29 29 29 28 28 29 29 29 29 29 29 29 29 30 31 31 33 34 35 36 37 38 38 39 39 40 40 41 41 41 41 41 40
41 40 39 38 37 37 36 35 34 33 32 32 31 31 31 31 31 30 30 31 31 31 31 32 33 34 35 37 38 39 40 41 41 42 42 43 43 43 44 44 44 44 43
43 42 41 40 39 39 38 37 36 36 35 34 34 33 33 33 32 32 32 32 33 33 34 35 36 37 38 40 41 42 43 44 44 44 44 45 45 45 46 46 46 46 45
46 44 43 42 41 41 40 40 39 38 38 37 36 36 35 35 34 34 34 34 35 35 36 37 38 39 41 42 44 44 45 46 46 46 46 47 47 47 47 47 47 46 46
47 46 45 44 43 43 43 42 41 40 40 39 38 37 37 36 36 36 36 36 37 38 38 39 41 42 43 45 47 47 47 47 47 47 48 47 47 47 47 47 47 47 47
47 47 46 45 45 44 44 44 43 42 41 40 40 39 39 38 38 38 38 38 39 40 41 42 43 45 46 48 49 49 48 47 47 47 47 47 47 47 47 47 48 47 48
46 46 47 46 45 45 45 44 44 43 42 41 41 40 40 40 40 40 40 41 42 42 43 44 46 48 49 50 50 51 51 49 48 46 46 46 46 47 47 48 49 50 51
45 46 46 46 46 46 45 45 44 44 43 42 42 42 41 42 42 42 42 43 43 44 45 47 49 50 51 51 51 51 51 50 50 48 46 46 46 47 48 50 51 52 53
45 45 46 46 46 46 46 46 45 45 44 43 43 43 43 44 44 44 44 44 45 46 48 49 50 51 51 51 51 50 50 49 49 49 47 46 47 48 50 52 53 54 54
44 45 45 46 47 47 47 47 46 46 46 45 45 45 45 45 45 45 45 46 47 48 50 50 51 51 51 50 50 49 49 48 48 48 47 47 48 49 51 53 54 54 54
Wind_Direction
235 240 245 251 258 265 271 276 281 284 286 291 300 314 328 335 339 343 346 346 344 340 338 337 335 333 331 330 329 327 323 320 317 315 314 314 314 313 313 312 311 309 308
239 244 249 254 261 266 269 274 279 283 286 292 304 320 333 337 339 341 341 339 336 333 331 331 329 329 328 328 326 324 321 318 316 314 313 312 312 312 312 311 309 307 306
241 245 250 255 260 263 265 269 274 279 286 296 312 325 332 333 335 336 335 334 331 328 326 325 324 324 325 325 323 321 319 318 316 315 313 312 312 312 311 310 308 306 305
238 242 247 252 254 256 259 263 268 275 285 298 311 319 324 326 328 330 330 329 327 324 322 320 320 320 321 321 320 319 317 316 315 314 313 312 311 311 311 310 309 307 305
235 237 242 246 248 249 252 257 264 274 285 297 306 312 316 319 321 323 324 324 323 321 319 317 316 316 317 317 317 316 315 313 313 312 311 310 310 310 310 310 309 307 305
232 234 237 240 242 243 246 251 261 275 286 296 303 306 310 313 315 318 319 320 319 319 317 316 315 314 314 314 314 313 313 312 311 311 311 310 309 308 308 308 307 306 305
230 231 233 236 238 241 244 250 259 272 283 292 298 302 305 308 311 314 315 316 316 316 315 315 315 314 313 313 312 311 311 311 310 310 309 309 308 307 306 305 304 304 303
229 230 231 234 238 241 246 253 262 271 279 286 291 296 300 304 307 310 312 313 313 313 313 314 314 314 313 312 312 311 310 309 309 308 307 306 306 305 304 303 303 301 300
229 230 231 235 239 244 249 256 265 272 278 283 286 291 295 300 304 307 308 309 310 310 311 312 312 313 312 312 311 310 309 308 308 307 306 305 304 303 302 301 301 299 298
230 231 232 236 240 246 253 260 268 275 279 283 286 288 291 296 300 303 305 306 307 308 309 310 311 311 311 311 311 310 309 308 307 307 305 304 303 301 300 299 299 298 296
232 233 235 237 242 247 255 263 270 276 280 284 286 287 289 293 296 299 301 303 304 305 307 308 309 309 310 310 309 308 308 307 306 306 305 304 303 301 300 298 297 296 295
231 234 236 239 244 249 256 263 270 275 279 282 285 287 288 291 294 296 298 300 301 303 304 306 307 307 308 308 308 308 307 306 305 305 304 303 302 300 299 297 296 295 294
231 234 237 241 246 251 256 262 268 273 277 280 283 285 287 290 292 295 297 298 299 301 302 304 305 305 306 307 307 307 306 306 305 304 303 302 300 299 297 296 295 294 293
231 234 238 242 247 252 256 261 266 270 274 277 280 283 286 289 292 294 295 296 298 299 301 303 304 304 305 306 306 306 305 305 305 304 303 302 300 298 297 295 295 293 292
231 234 238 242 246 251 255 260 264 268 271 274 277 280 283 287 290 292 294 295 296 298 300 301 302 303 303 304 304 304 304 304 304 303 302 301 300 299 297 296 294 293 292
230 233 237 241 245 249 253 258 262 265 268 271 274 277 280 284 287 289 292 294 295 297 298 299 300 301 301 301 302 302 302 302 302 301 301 300 299 298 297 296 295 293 291
231 234 237 241 245 249 253 257 260 263 266 269 272 275 278 281 284 287 290 291 292 295 296 297 297 298 299 299 300 299 300 300 300 299 299 299 298 297 296 296 294 293 292
234 236 238 242 245 249 253 257 260 263 266 268 271 273 276 278 281 284 286 288 290 292 294 295 296 297 297 298 298 298 298 298 298 298 298 297 297 296 295 295 294 293 292
235 237 239 242 246 249 253 256 259 262 265 267 270 272 274 277 279 281 283 285 288 290 291 292 294 295 296 296 296 297 298 298 298 298 298 297 296 296 295 294 294 293 292
235 236 238 241 245 248 251 255 257 260 263 266 269 271 273 275 277 279 281 283 285 287 289 290 292 292 293 294 294 295 296 296 297 298 297 296 296 295 294 294 293 292 291
236 238 239 240 243 246 250 252 255 258 261 263 266 269 271 274 275 278 279 281 283 285 287 288 290 291 292 292 293 294 295 296 296 296 295 296 295 295 294 294 293 292 291
238 239 241 242 244 246 249 252 254 257 259 262 264 267 270 272 274 276 278 280 282 284 285 287 288 290 291 292 293 293 293 294 295 295 296 296 295 295 294 294 293 292 291
238 240 242 243 245 247 249 252 254 257 259 262 265 267 269 272 274 276 278 280 282 284 286 287 289 290 291 292 293 294 294 294 294 295 295 295 295 295 294 294 293 292 291
239 240 242 244 246 248 250 253 255 257 260 262 265 267 270 272 274 276 278 280 282 284 286 288 289 290 291 292 293 294 295 296 296 295 295 295 294 294 294 294 293 292 291
240 241 242 244 246 248 250 253 255 257 260 262 265 267 270 272 273 275 277 279 282 284 287 288 289 290 291 292 293 294 295 296 297 297 296 296 295 295 294 294 293 292 291
242 242 243 244 246 248 251 253 255 257 260 263 265 267 269 271 273 275 277 280 282 285 287 288 289 290 291 292 293 295 295 296 297 297 297 297 296 296 296 295 294 293 291
Height
5890 5891 5892 5893 5894 5895 5896 5897 5897 5898 5898 5898 5899 5899 5900 5900 5900 5900 5900 5900 5899 5899 5898 5898 5897 5896 5895 5895 5894 5893 5893 5892 5891 5891 5890 5889 5888 5887 5886 5885 5883 5882 5881
5888 5889 5891 5892 5893 5894 5895 5896 5896 5897 5897 5898 5898 5898 5899 5899 5899 5899 5899 5898 5898 5897 5897 5896 5895 5895 5894 5893 5892 5892 5891 5890 5889 5888 5888 5887 5886 5884 5883 5882 5881 5880 5879
5886 5888 5889 5890 5892 5893 5894 5894 5895 5896 5896 5897 5897 5897 5898 5898 5898 5898 5897 5897 5897 5896 5895 5895 5894 5893 5892 5891 5891 5890 5889 5888 5887 5886 5885 5884 5883 5882 5881 5879 5878 5877 5876
5884 5885 5887 5889 5890 5891 5892 5893 5894 5895 5895 5896 5896 5896 5897 5897 5897 5896 5896 5896 5895 5895 5894 5893 5892 5891 5890 5890 5889 5888 5887 5886 5885 5884 5883 5882 5881 5879 5878 5877 5875 5874 5873
5881 5883 5885 5886 5888 5890 5891 5892 5893 5894 5894 5895 5895 5895 5895 5895 5895 5895 5895 5894 5894 5893 5892 5891 5890 5889 5888 5888 5887 5886 5885 5884 5883 5882 5881 5879 5878 5876 5875 5874 5872 5871 5869
5878 5880 5882 5884 5886 5888 5889 5890 5891 5892 5893 5893 5893 5894 5894 5894 5894 5894 5893 5893 5892 5891 5890 5889 5888 5887 5886 5886 5885 5884 5883 5882 5880 5879 5878 5877 5875 5874 5872 5871 5869 5868 5866
5876 5878 5880 5882 5884 5886 5887 5889 5890 5891 5891 5892 5892 5892 5892 5892 5892 5892 5891 5891 5890 5889 5888 5887 5886 5886 5885 5884 5882 5881 5880 5879 5878 5876 5875 5874 5872 5871 5869 5868 5866 5865 5863
5873 5875 5877 5879 5881 5883 5885 5886 5888 5889 5889 5890 5890 5890 5890 5890 5890 5889 5889 5889 5888 5887 5886 5885 5884 5883 5882 5881 5880 5879 5878 5876 5875 5873 5872 5871 5869 5868 5866 5865 5863 5862 5860
5870 5872 5874 5877 5879 5881 5882 5884 5885 5886 5887 5888 5888 5888 5888 5888 5887 5887 5887 5886 5885 5885 5884 5883 5882 5881 5880 5879 5877 5876 5875 5874 5872 5871 5869 5867 5866 5864 5863 5861 5860 5858 5857
5866 5869 5871 5874 5876 5877 5879 5881 5882 5883 5884 5885 5886 5886 5886 5885 5885 5885 5884 5884 5883 5882 5881 5880 5880 5879 5877 5876 5875 5873 5872 5870 5869 5867 5866 5864 5862 5861 5859 5858 5856 5854 5853
5862 5865 5868 5870 5872 5874 5876 5878 5879 5880 5881 5882 5882 5883 5883 5882 5882 5882 5881 5881 5880 5879 5878 5877 5876 5875 5874 5873 5872 5870 5869 5867 5865 5864 5862 5860 5858 5857 5855 5853 5852 5850 5849
5858 5861 5864 5866 5869 5871 5873 5874 5876 5877 5878 5878 5879 5879 5879 5879 5879 5879 5878 5878 5877 5876 5875 5874 5873 5872 5871 5870 5868 5867 5865 5863 5862 5860 5858 5856 5854 5852 5851 5849 5847 5846 5844
5854 5857 5860 5862 5865 5867 5869 5871 5872 5873 5874 5875 5875 5876 5876 5876 5876 5875 5875 5874 5873 5872 5871 5870 5869 5868 5867 5866 5864 5862 5861 5859 5857 5855 5853 5852 5850 5848 5846 5844 5842 5841 5839
5849 5852 5855 5858 5861 5863 5865 5867 5868 5869 5870 5871 5871 5872 5872 5872 5871 5871 5871 5870 5869 5868 5868 5867 5865 5864 5862 5861 5859 5858 5856 5854 5852 5850 5848 5846 5844 5842 5840 5839 5837 5835 5834
5844 5847 5850 5853 5856 5858 5860 5862 5863 5864 5865 5866 5867 5867 5868 5867 5867 5867 5866 5866 5865 5864 5863 5862 5861 5859 5858 5856 5854 5853 5851 5849 5847 5845 5843 5841 5838 5836 5834 5833 5831 5829 5828
5838 5841 5845 5848 5850 5853 5855 5857 5858 5860 5861 5861 5862 5863 5863 5863 5862 5862 5861 5861 5860 5859 5858 5857 5856 5854 5853 5851 5849 5847 5845 5843 5841 5839 5837 5834 5832 5829 5827 5826 5824 5822 5821
5831 5835 5839 5842 5845 5847 5849 5851 5853 5854 5855 5856 5857 5857 5858 5857 5857 5857 5856 5855 5854 5854 5853 5851 5850 5849 5847 5845 5843 5841 5839 5837 5835 5832 5830 5827 5824 5822 5820 5818 5816 5815 5813
5825 5829 5832 5836 5838 5841 5843 5845 5847 5848 5849 5850 5851 5851 5852 5852 5852 5852 5851 5850 5848 5848 5847 5845 5844 5842 5840 5838 5836 5834 5832 5830 5828 5825 5822 5819 5817 5814 5812 5809 5808 5806 5805
5818 5822 5826 5829 5832 5834 5836 5838 5840 5842 5843 5844 5844 5845 5845 5846 5846 5846 5845 5844 5842 5841 5840 5839 5837 5835 5834 5831 5829 5827 5825 5822 5820 5817 5814 5811 5808 5805 5803 5800 5799 5797 5795
5811 5815 5819 5822 5825 5827 5829 5832 5833 5835 5836 5837 5838 5838 5839 5839 5839 5839 5838 5837 5836 5835 5834 5832 5830 5829 5827 5824 5822 5820 5817 5814 5811 5809 5805 5802 5799 5796 5793 5791 5789 5787 5785
5803 5807 5811 5815 5817 5820 5822 5825 5826 5828 5829 5830 5831 5831 5832 5832 5832 5832 5831 5830 5829 5828 5827 5825 5823 5821 5819 5816 5813 5812 5809 5806 5803 5800 5796 5793 5790 5786 5784 5781 5779 5777 5775
5795 5799 5803 5806 5809 5812 5814 5817 5819 5821 5822 5823 5824 5825 5825 5825 5825 5824 5824 5823 5822 5820 5819 5817 5815 5812 5810 5807 5804 5801 5801 5799 5795 5790 5787 5784 5780 5777 5774 5771 5768 5766 5764
5787 5791 5794 5797 5801 5803 5806 5808 5811 5813 5814 5816 5816 5817 5817 5817 5817 5816 5815 5815 5813 5812 5810 5808 5805 5803 5801 5798 5794 5791 5789 5788 5786 5783 5778 5774 5770 5767 5764 5760 5757 5754 5751
5779 5782 5786 5789 5792 5795 5797 5800 5802 5804 5806 5807 5808 5808 5808 5808 5808 5807 5806 5805 5804 5802 5801 5799 5796 5793 5790 5788 5784 5780 5777 5775 5773 5772 5770 5765 5761 5757 5753 5749 5745 5742 5738
5770 5774 5778 5781 5784 5786 5789 5791 5793 5795 5797 5798 5799 5799 5799 5799 5799 5798 5797 5796 5795 5793 5791 5789 5786 5783 5779 5777 5774 5771 5767 5764 5761 5758 5758 5755 5751 5746 5742 5737 5733 5729 5725
5762 5765 5769 5772 5775 5777 5780 5782 5784 5786 5788 5789 5790 5791 5790 5790 5790 5789 5788 5787 5785 5783 5781 5778 5775 5772 5769 5766 5763 5760 5757 5754 5750 5747 5745 5743 5740 5735 5730 5725 5720 5715 5711